[[{"header":{"parameterUnit":"m.s-1","parameterCategory":1,"la1":30.2991,"la2":30.254,"lo1":-89.0895,"lo2":-89.0444,"dy":0.0017,"dx":0.0017,"nx":28,"ny":28,"refTime":"2025-03-22T21:00:00:Z","depth":0,"parameterNumber":2,"parameterNumberName":"U-component_of_WINDS"},"data":[0,0,0,0,0,0,0,0,0,0,0,0,0,0,0,0,0,0,0,0,0,0,0,0,0,0,0,0,0,0,0,0,0,0,0,0,0,0,0,0,0,0,0,0,0,0,0,0,0,0,0,0,0,0,0,0,0,0,-0.1764,-0.1763,0,-0.1726,-0.1725,-0.1725,-0.1714,-0.1715,-0.1715,-0.1715,-0.1677,-0.1676,-0.1675,0,0,0,0,0,0,0,0,0,0,0,0,0,-0.1829,-0.1828,-0.1764,-0.1763,-0.1763,-0.1726,-0.1725,-0.1725,-0.1714,-0.1715,-0.1715,-0.1715,-0.1677,-0.1676,-0.1675,0,0,0,0,0,0,0,0,0,0,0,0,0,-0.1797,-0.1827,-0.1764,-0.1753,-0.1752,-0.1726,-0.1725,-0.1725,-0.1714,-0.1715,-0.1715,-0.1715,-0.1678,-0.1676,-0.1674,-0.1657,0,0,-0.1669,-0.1668,0,0,0,0,0,0,0,0,-0.1799,-0.1794,-0.1755,-0.1754,-0.1752,-0.1725,-0.1734,-0.1702,-0.1714,-0.1729,-0.1715,-0.1715,-0.1693,-0.169,-0.1682,-0.1655,-0.1653,-0.1669,-0.1668,-0.1667,-0.1666,0,0,0,0,0,0,0,-0.1801,-0.1796,-0.1749,-0.1755,-0.1753,-0.1751,-0.1746,-0.1728,-0.1709,-0.1727,-0.1726,-0.1722,-0.1692,-0.1684,-0.1681,-0.1653,-0.1669,-0.1667,-0.1666,-0.1665,-0.1609,-0.1609,0,0,0,0,0,0,-0.1805,-0.1798,-0.175,-0.1748,-0.1777,-0.1749,-0.1745,-0.1733,-0.171,-0.1706,-0.1722,-0.1722,-0.1687,-0.1683,-0.168,-0.1657,-0.1667,-0.1665,-0.1664,-0.1609,-0.1609,-0.1609,0,0,0,0,0,0,-0.1806,-0.1801,-0.1751,-0.1772,-0.1766,-0.1748,-0.1735,-0.1733,-0.1724,-0.1705,-0.1702,-0.1717,-0.1687,-0.1682,-0.1662,-0.1656,-0.1664,-0.1663,-0.161,-0.1609,-0.1609,-0.1612,0,0,0,0,0,0,-0.1808,-0.1801,-0.1794,-0.1772,-0.1765,-0.1734,-0.1735,-0.1732,-0.1721,-0.172,-0.17,-0.1696,-0.1687,-0.1665,-0.1661,-0.1653,-0.1661,-0.161,-0.161,-0.1609,-0.1613,-0.1612,-0.1611,0,0,0,0,0,-0.181,-0.1797,-0.1794,-0.1788,-0.1755,-0.1734,-0.173,-0.1719,-0.172,-0.1713,-0.1701,-0.1697,-0.1657,-0.1663,-0.1658,-0.165,-0.1611,-0.161,-0.1609,-0.1613,-0.1612,-0.1611,0,0,0,0,0,0,-0.1818,-0.1794,-0.179,-0.1769,-0.1754,-0.1732,-0.1723,-0.1718,-0.1702,-0.1703,-0.169,-0.1685,-0.1666,-0.1656,-0.1663,-0.1632,-0.1634,-0.1632,-0.1639,-0.1638,-0.1637,-0.164,-0.166,0,0,0,0,0,-0.1818,-0.1802,-0.1781,-0.1765,-0.1757,-0.1741,-0.1732,-0.1724,-0.1708,-0.1702,-0.1688,-0.1673,-0.1657,-0.1647,-0.1631,-0.1611,-0.1607,-0.1603,-0.1603,-0.1602,-0.1601,-0.159,-0.1588,-0.1606,-0.1606,-0.1606,0,0,-0.1816,-0.1801,-0.1791,-0.1766,-0.1753,-0.1738,-0.1736,-0.172,-0.1708,-0.1699,-0.168,-0.1669,-0.1652,-0.1632,-0.1622,-0.1623,-0.1595,-0.1601,-0.1601,-0.16,-0.1588,-0.1587,-0.1585,-0.1605,-0.1605,-0.1605,0,0,-0.1805,-0.1792,-0.1776,-0.1763,-0.1744,-0.1734,-0.173,-0.171,-0.1702,-0.1682,-0.1675,-0.1662,-0.1634,-0.1622,-0.1612,-0.1597,-0.1592,-0.1592,-0.1588,-0.1577,-0.1576,-0.1575,-0.1569,-0.1567,-0.159,-0.159,-0.159,0,-0.1806,-0.1781,-0.1769,-0.1753,-0.1742,-0.1733,-0.1717,-0.1706,-0.1683,-0.1676,-0.1676,-0.1642,-0.163,-0.1607,-0.1603,-0.1595,-0.1591,-0.1594,-0.1577,-0.1576,-0.1574,-0.1569,-0.1567,-0.1591,-0.1591,-0.159,-0.159,0,-0.1783,-0.1766,-0.1756,-0.1734,-0.1721,-0.1706,-0.1692,-0.1681,-0.1675,-0.1664,-0.1644,-0.1629,-0.161,-0.1604,-0.1598,-0.158,-0.1581,-0.158,-0.1582,-0.1573,-0.1568,-0.1565,-0.1591,-0.1591,-0.1591,-0.1591,0,0,-0.1776,-0.1747,-0.1743,-0.1733,-0.1711,-0.1698,-0.1682,-0.1663,-0.1654,-0.1638,-0.1625,-0.1602,-0.1601,-0.159,-0.1582,-0.1573,-0.1561,-0.1572,-0.1572,-0.1571,-0.1541,-0.1542,-0.154,-0.1558,-0.1558,-0.1557,-0.1542,0,-0.1762,-0.1733,-0.1721,-0.1698,-0.1682,-0.1674,-0.166,-0.1645,-0.1635,-0.1621,-0.161,-0.1594,-0.1593,-0.1586,-0.1577,-0.1565,-0.1555,-0.1566,-0.1546,-0.1545,-0.155,-0.1537,-0.1538,-0.1525,-0.154,-0.154,-0.154,0,-0.1742,-0.1726,-0.1701,-0.1681,-0.1674,-0.1661,-0.1643,-0.1629,-0.1613,-0.1606,-0.1594,-0.1586,-0.157,-0.1573,-0.155,-0.1557,-0.1548,-0.1541,-0.154,-0.1538,-0.1542,-0.1534,-0.152,-0.1518,-0.1536,-0.1537,-0.1537,0,-0.174,-0.1712,-0.1693,-0.1684,-0.166,-0.1652,-0.1642,-0.1625,-0.1614,-0.1599,-0.1592,-0.1574,-0.1565,-0.1552,-0.154,-0.1543,-0.1518,-0.152,-0.1512,-0.1513,-0.1507,-0.1508,-0.1491,-0.1502,-0.1502,-0.1502,-0.1502,0,-0.1726,-0.1711,-0.1691,-0.168,-0.1663,-0.165,-0.1633,-0.1622,-0.1608,-0.1594,-0.1586,-0.1573,-0.1559,-0.1545,-0.1536,-0.1518,-0.1514,-0.1508,-0.1506,-0.1509,-0.151,-0.1503,-0.1504,-0.1501,-0.1501,-0.1501,-0.1502,0,-0.172,-0.1707,-0.1686,-0.1664,-0.1659,-0.1647,-0.1629,-0.1618,-0.1607,-0.159,-0.1586,-0.1569,-0.1552,-0.1539,-0.1517,-0.1511,-0.1492,-0.149,-0.1498,-0.1497,-0.1489,-0.149,-0.1468,-0.1465,-0.1477,-0.1477,-0.1477,0,-0.1712,-0.17,-0.1678,-0.1668,-0.1658,-0.1642,-0.1631,-0.1618,-0.1607,-0.1587,-0.1578,-0.156,-0.1545,-0.1518,-0.1504,-0.1487,-0.1484,-0.1478,-0.1482,-0.1485,-0.1484,-0.1485,-0.1484,-0.1477,-0.1477,-0.1477,-0.1477,0,-0.17,-0.1693,-0.1678,-0.1659,-0.1646,-0.1631,-0.1616,-0.1609,-0.1593,-0.1581,-0.1563,-0.1552,-0.1529,-0.1511,-0.1493,-0.1483,-0.1477,-0.1476,-0.1473,-0.1476,-0.1481,-0.1478,-0.1496,-0.1477,-0.1477,-0.1477,-0.1477,-0.1477,-0.1693,-0.1682,-0.1664,-0.1647,-0.1634,-0.162,-0.1608,-0.1596,-0.1581,-0.1561,-0.1554,-0.1536,-0.1519,-0.1494,-0.1484,-0.1469,-0.1469,-0.1465,-0.1464,-0.1464,-0.1464,-0.1483,-0.1466,-0.1466,-0.1466,-0.1466,-0.1466,0,-0.168,-0.1668,-0.1652,-0.1631,-0.1617,-0.1613,-0.1596,-0.1585,-0.1569,-0.1554,-0.1539,-0.1519,-0.1502,-0.1486,-0.1469,-0.146,-0.1457,-0.1456,-0.1456,-0.1454,-0.1465,-0.1469,-0.1459,-0.1459,-0.1459,-0.1459,-0.1459,-0.1459,-0.1671,-0.1652,-0.1644,-0.1619,-0.1607,-0.1588,-0.1579,-0.1566,-0.1554,-0.1532,-0.1517,-0.1507,-0.1492,-0.1473,-0.1458,-0.1454,-0.1448,-0.1447,-0.1442,-0.1453,-0.1453,-0.1454,-0.1458,-0.1446,-0.1446,-0.1433,-0.1433,-0.1433]},{"header":{"parameterUnit":"m.s-1","parameterCategory":1,"la1":30.2991,"la2":30.254,"lo1":-89.0895,"lo2":-89.0444,"dy":0.0017,"dx":0.0017,"nx":28,"ny":28,"refTime":"2025-03-22T21:00:00:Z","depth":0,"parameterNumber":3,"parameterNumberName":"V-component_of_WINDS"},"data":[0,0,0,0,0,0,0,0,0,0,0,0,0,0,0,0,0,0,0,0,0,0,0,0,0,0,0,0,0,0,0,0,0,0,0,0,0,0,0,0,0,0,0,0,0,0,0,0,0,0,0,0,0,0,0,0,0,0,3.5793,3.5794,0,3.5885,3.5886,3.5887,3.5865,3.5863,3.5862,3.586,3.595,3.5954,3.5958,0,0,0,0,0,0,0,0,0,0,0,0,0,3.5593,3.5597,3.5793,3.5794,3.5795,3.5884,3.5886,3.5887,3.5865,3.5863,3.5861,3.5859,3.5949,3.5954,3.5958,0,0,0,0,0,0,0,0,0,0,0,0,0,3.5682,3.5598,3.5792,3.5795,3.5796,3.5884,3.5886,3.5887,3.5866,3.5863,3.5861,3.5858,3.5947,3.5953,3.5959,3.6049,0,0,3.5978,3.598,0,0,0,0,0,0,0,0,3.5677,3.5689,3.5793,3.5795,3.5796,3.5861,3.5849,3.5941,3.5867,3.5839,3.586,3.5857,3.5922,3.593,3.5953,3.6053,3.6057,3.5978,3.5982,3.5984,3.5986,0,0,0,0,0,0,0,3.5671,3.5685,3.5829,3.5795,3.5797,3.579,3.58,3.5866,3.5894,3.5841,3.584,3.5852,3.5923,3.5947,3.5955,3.6058,3.5978,3.5983,3.5987,3.5989,3.6235,3.6237,0,0,0,0,0,0,3.5664,3.568,3.5826,3.5832,3.5729,3.5796,3.5807,3.5843,3.5894,3.5899,3.5854,3.585,3.5938,3.5948,3.5958,3.6065,3.5984,3.599,3.5993,3.6232,3.6235,3.6238,0,0,0,0,0,0,3.566,3.5677,3.5822,3.5756,3.5774,3.5802,3.5843,3.5846,3.5871,3.5903,3.5907,3.5874,3.5937,3.595,3.6026,3.6068,3.5993,3.5998,3.6228,3.6233,3.6237,3.6281,0,0,0,0,0,0,3.5654,3.5676,3.5712,3.5757,3.5777,3.5891,3.5845,3.585,3.5882,3.5878,3.5923,3.5928,3.5936,3.6017,3.6032,3.6075,3.6003,3.6225,3.623,3.6235,3.6276,3.6287,3.6296,0,0,0,0,0,3.5647,3.572,3.5714,3.5731,3.5823,3.5893,3.5905,3.5913,3.5885,3.592,3.5941,3.5927,3.6061,3.6026,3.6042,3.6087,3.6222,3.6229,3.6235,3.6272,3.6285,3.6295,0,0,0,0,0,0,3.5678,3.5726,3.5719,3.5809,3.5847,3.5889,3.5934,3.5926,3.5972,3.5967,3.5974,3.5984,3.6062,3.6082,3.6041,3.6176,3.6137,3.6148,3.616,3.6172,3.6182,3.6175,3.6008,0,0,0,0,0,3.5696,3.575,3.5789,3.5864,3.5884,3.5906,3.5936,3.594,3.5979,3.5994,3.602,3.6058,3.6108,3.6141,3.619,3.6279,3.6288,3.6318,3.6328,3.6336,3.6344,3.6391,3.6405,3.626,3.626,3.6259,0,0,3.5732,3.5765,3.5799,3.5871,3.5901,3.5955,3.5919,3.5979,3.6019,3.6003,3.6077,3.6097,3.6139,3.6222,3.626,3.6242,3.6386,3.6344,3.635,3.6354,3.6399,3.6413,3.6425,3.6264,3.6263,3.6262,0,0,3.5826,3.5857,3.5922,3.5953,3.5999,3.6013,3.6029,3.6072,3.6085,3.616,3.6149,3.6196,3.6283,3.6313,3.634,3.6444,3.6432,3.6459,3.6509,3.6555,3.6566,3.6577,3.6612,3.6625,3.6468,3.6468,3.6468,0,3.5864,3.5948,3.5957,3.6017,3.6049,3.6038,3.6103,3.6132,3.6191,3.6212,3.6191,3.63,3.6327,3.6416,3.6442,3.6464,3.6481,3.6454,3.6564,3.6575,3.6584,3.6618,3.6632,3.6471,3.647,3.647,3.647,0,3.5992,3.605,3.6097,3.6156,3.6192,3.6255,3.6272,3.6307,3.6307,3.6323,3.6398,3.6431,3.6485,3.6506,3.6506,3.6595,3.6582,3.6563,3.6524,3.6601,3.6633,3.6646,3.6475,3.6474,3.6473,3.6472,0,0,3.6108,3.617,3.6187,3.6213,3.6262,3.6306,3.6368,3.6422,3.6452,3.6492,3.6543,3.6617,3.6599,3.6629,3.6632,3.6673,3.6751,3.6648,3.6649,3.6665,3.6849,3.6862,3.6877,3.6744,3.6746,3.6748,3.6845,0,3.6206,3.6315,3.6324,3.6422,3.6475,3.6464,3.6517,3.6553,3.6569,3.6614,3.6631,3.6683,3.6656,3.6674,3.6714,3.6733,3.6788,3.6726,3.6789,3.6791,3.6778,3.6894,3.6909,3.6999,3.6858,3.686,3.6861,0,3.6334,3.6379,3.6483,3.6523,3.6546,3.6594,3.6643,3.6687,3.6726,3.6735,3.6768,3.6766,3.6827,3.6786,3.687,3.6828,3.6854,3.6867,3.687,3.6876,3.683,3.6902,3.7028,3.7041,3.6881,3.688,3.6878,0,3.6407,3.6493,3.6566,3.6588,3.6638,3.6672,3.6694,3.673,3.6762,3.6804,3.6824,3.6874,3.69,3.6937,3.6947,3.6917,3.703,3.699,3.7037,3.7037,3.7061,3.7059,3.7191,3.7079,3.7079,3.7079,3.7078,0,3.6514,3.6577,3.6599,3.6644,3.6713,3.6723,3.6791,3.6811,3.6843,3.689,3.6884,3.6928,3.6939,3.6984,3.6992,3.7059,3.7071,3.7079,3.708,3.7079,3.7078,3.7095,3.7089,3.7082,3.7081,3.7081,3.708,0,3.6606,3.6624,3.6702,3.6743,3.6755,3.6804,3.6838,3.688,3.6895,3.6955,3.6969,3.6992,3.7045,3.7059,3.7122,3.7127,3.7206,3.7201,3.7193,3.7192,3.7238,3.7233,3.7386,3.7405,3.7281,3.7282,3.7283,0,3.6673,3.6722,3.6768,3.6799,3.6823,3.6874,3.6906,3.6916,3.695,3.6997,3.7033,3.7085,3.7128,3.7212,3.7234,3.7282,3.7278,3.7328,3.7285,3.7282,3.7277,3.7274,3.7278,3.7336,3.7337,3.7338,3.7339,0,3.679,3.6796,3.6843,3.6893,3.6932,3.6971,3.7009,3.7035,3.705,3.7088,3.7142,3.7175,3.724,3.7291,3.734,3.736,3.7352,3.7353,3.7366,3.7365,3.7357,3.7361,3.7214,3.7349,3.7348,3.7347,3.7347,3.7346,3.6871,3.6913,3.6952,3.7004,3.7033,3.7069,3.711,3.713,3.7176,3.723,3.7233,3.7292,3.7328,3.7392,3.7415,3.746,3.7445,3.7464,3.7469,3.7473,3.7477,3.7351,3.7469,3.7469,3.7469,3.7468,3.7468,0,3.6986,3.701,3.7058,3.7111,3.7152,3.7142,3.7183,3.7217,3.7269,3.7304,3.7346,3.7408,3.7458,3.7483,3.7532,3.7563,3.756,3.7575,3.7572,3.7577,3.7488,3.7472,3.7577,3.7577,3.7577,3.7577,3.7576,3.7576,3.705,3.7121,3.7131,3.7215,3.7238,3.7297,3.7321,3.7353,3.738,3.745,3.7492,3.7508,3.7539,3.7589,3.7634,3.764,3.7657,3.7675,3.7678,3.7595,3.7584,3.7573,3.7557,3.7679,3.7679,3.7763,3.7764,3.7765]}]]